GW2822 Weather Reports


time (UTC)temp
C
wind
direction
speed
KPH
gust
KPH
rain 1hr
cm
rain 24hr
cm
rain mn
cm
humidity
%
barometer
mb
20260506134522 22 73 1.6 6.4 0.00 0.00 0.00 95 1006.6
20260506134038 22 69 1.6 6.4 0.00 0.00 0.00 95 1006.2
20260506133547 22 58 3.2 8.0 0.00 0.00 0.00 95 1006.1
20260506133006 22 86 3.2 8.0 0.00 0.00 0.00 95 1006.1
20260506132522 22 88 1.6 6.4 0.00 0.00 0.00 95 1006.1
20260506132034 22 69 1.6 6.4 0.00 0.00 0.00 96 1006.2
20260506131546 22 68 3.2 6.4 0.00 0.00 0.00 95 1006.2
20260506131010 22 71 1.6 6.4 0.00 0.00 0.00 95 1006.2
20260506130519 22 77 1.6 6.4 0.00 0.00 0.00 95 1006.2
20260506130013 22 82 3.2 6.4 0.00 0.00 0.00 95 1006.0
20260506125526 22 86 1.6 6.4 0.00 0.00 0.00 95 1006.0
20260506125040 22 66 1.6 6.4 0.00 0.00 0.00 95 1005.9
20260506124550 22 90 1.6 11.3 0.00 0.00 0.00 95 1005.8
20260506124009 22 98 3.2 11.3 0.00 0.00 0.00 95 1005.7
20260506123522 22 88 4.8 8.0 0.00 0.00 0.00 95 1005.6
20260506123030 22 102 3.2 6.4 0.00 0.00 0.00 95 1005.7
20260506122547 22 75 3.2 6.4 0.00 0.00 0.00 95 1005.8
20260506122053 22 69 1.6 4.8 0.00 0.00 0.00 95 1005.7
20260506121510 22 133 1.6 4.8 0.00 0.00 0.00 95 1005.7
20260506121026 22 134 1.6 4.8 0.00 0.00 0.00 95 1005.8
20260506120540 22 134 1.6 4.8 0.00 0.00 0.00 95 1005.8
20260506120041 22 163 1.6 3.2 0.00 0.00 0.00 95 1005.7
20260506115552 22 163 1.6 3.2 0.00 0.00 0.00 95 1005.8
20260506115009 22 163 0.0 1.6 0.00 0.00 0.00 95 1005.7
20260506114524 22 163 0.0 1.6 0.00 0.00 0.00 95 1005.7
20260506114036 22 163 0.0 1.6 0.00 0.00 0.00 94 1005.6
20260506113550 22 163 0.0 1.6 0.00 0.00 0.00 94 1005.6
20260506113010 22 163 0.0 1.6 0.00 0.00 0.00 94 1005.7
20260506112526 22 163 0.0 3.2 0.00 0.00 0.00 94 1005.8
20260506112039 22 163 0.0 3.2 0.00 0.00 0.00 94 1005.8
20260506111552 22 163 0.0 3.2 0.00 0.00 0.00 94 1005.8
20260506111008 22 163 0.0 1.6 0.00 0.00 0.00 94 1005.8
20260506110521 22 163 0.0 1.6 0.00 0.00 0.00 94 1005.7
20260506110016 22 163 0.0 1.6 0.00 0.00 0.00 94 1005.8
20260506105531 22 163 0.0 1.6 0.00 0.00 0.00 94 1005.7
20260506105046 22 163 0.0 1.6 0.00 0.00 0.00 94 1005.6
20260506104503 22 163 0.0 3.2 0.00 0.00 0.00 94 1005.5
20260506104021 22 163 0.0 3.2 0.00 0.00 0.00 94 1005.6
20260506103529 22 163 0.0 4.8 0.00 0.00 0.00 94 1005.5
20260506103039 22 163 0.0 8.0 0.00 0.00 0.00 94 1005.5
20260506102556 22 163 3.2 9.7 0.00 0.00 0.00 94 1005.4
20260506102010 22 196 4.8 11.3 0.00 0.00 0.00 94 1005.5
20260506101526 22 185 4.8 9.7 0.00 0.00 0.00 94 1005.5
20260506101035 22 190 1.6 9.7 0.00 0.00 0.00 94 1005.5
20260506100552 22 194 3.2 12.9 0.00 0.00 0.00 94 1005.4
20260506100047 22 190 3.2 12.9 0.00 0.00 0.00 94 1005.3
20260506095557 22 184 4.8 12.9 0.00 0.00 0.00 94 1005.2
20260506095019 22 197 4.8 9.7 0.00 0.00 0.00 94 1005.2
20260506094527 22 177 4.8 9.7 0.00 0.00 0.00 94 1005.4
20260506094042 22 156 3.2 12.9 0.00 0.00 0.00 94 1005.3
20260506093557 22 181 3.2 12.9 0.00 0.00 0.00 94 1005.2
20260506093018 22 227 3.2 11.3 0.00 0.00 0.00 94 1005.1
20260506092533 22 189 4.8 12.9 0.00 0.00 0.00 93 1005.0
20260506092047 22 186 6.4 12.9 0.00 0.00 0.00 93 1005.0
20260506091557 22 157 6.4 12.9 0.00 0.00 0.00 93 1005.1
20260506091505 22 177 6.4 12.9 0.00 0.00 0.00 93 1005.0
20260506091018 22 124 6.4 16.1 0.00 0.00 0.00 93 1005.0
20260506090531 22 152 4.8 16.1 0.00 0.00 0.00 93 1004.9
20260506090025 22 149 6.4 12.9 0.00 0.00 0.00 93 1004.9
20260506085543 22 161 4.8 11.3 0.00 0.00 0.00 93 1004.9
20260506085059 22 164 4.8 12.9 0.00 0.00 0.00 93 1004.9
20260506085002 22 157 6.4 12.9 0.00 0.00 0.00 93 1004.8
20260506084519 22 152 4.8 12.9 0.00 0.00 0.00 93 1004.8
20260506084027 22 136 6.4 12.9 0.00 0.00 0.00 93 1004.9
20260506083548 22 182 3.2 9.7 0.00 0.00 0.00 92 1004.9
20260506083005 22 148 4.8 14.5 0.00 0.00 0.00 92 1004.9
20260506082520 22 138 4.8 20.9 0.00 0.00 0.00 92 1005.0
20260506082029 22 169 9.7 16.1 0.00 0.00 0.00 92 1005.0
20260506081547 23 181 9.7 16.1 0.00 0.00 0.00 92 1004.9
20260506081011 23 131 3.2 17.7 0.00 0.00 0.00 92 1004.9
20260506080517 23 160 11.3 17.7 0.00 0.00 0.00 92 1005.0
20260506073526 23 154 6.4 20.9 0.00 0.00 0.00 92 1005.3
20260506073031 23 130 11.3 20.9 0.00 0.00 0.00 92 1005.4
20260506072548 23 149 8.0 16.1 0.00 0.00 0.00 92 1005.3
20260506072056 23 158 8.0 16.1 0.00 0.00 0.00 92 1005.2
20260506072003 23 165 11.3 16.1 0.00 0.00 0.00 92 1005.3
20260506071519 23 142 6.4 17.7 0.00 0.00 0.00 92 1005.4
20260506071026 23 153 8.0 17.7 0.00 0.00 0.00 91 1005.5
20260506070542 23 148 8.0 12.9 0.00 0.00 0.00 91 1005.6
20260506062035 23 167 9.7 17.7 0.00 0.00 0.00 91 1005.5
20260506061549 23 166 8.0 17.7 0.00 0.00 0.00 91 1005.5
20260506061058 23 141 8.0 17.7 0.00 0.00 0.00 90 1005.5
20260506060513 23 161 8.0 17.7 0.00 0.00 0.00 90 1005.7
20260506051020 23 154 9.7 19.3 0.00 0.00 0.00 90 1005.7
20260506050535 23 66 4.8 16.1 0.00 0.00 0.00 90 1005.8
20260506045057 23 161 6.4 17.7 0.00 0.00 0.00 90 1005.7
20260506044515 23 154 8.0 22.5 0.00 0.00 0.00 90 1005.7
20260506044025 23 131 8.0 22.5 0.00 0.00 0.00 90 1005.7
20260506043537 23 138 6.4 16.1 0.00 0.00 0.00 90 1005.6
20260506043053 23 145 4.8 16.1 0.00 0.00 0.00 90 1005.6
20260506042507 23 175 3.2 11.3 0.00 0.00 0.00 90 1005.6
20260506042024 23 153 1.6 11.3 0.00 0.00 0.00 90 1005.6
20260506041552 23 109 3.2 8.0 0.00 0.00 0.00 90 1005.5
20260506041055 23 142 1.6 11.3 0.00 0.00 0.00 89 1005.4
20260506040517 23 118 3.2 11.3 0.00 0.00 0.00 89 1005.3
20260506040007 23 127 4.8 12.9 0.00 0.00 0.00 89 1005.3
20260506035521 23 132 6.4 12.9 0.00 0.00 0.00 89 1005.2
20260506035036 23 138 4.8 9.7 0.00 0.00 0.00 88 1005.2
20260506034551 23 128 3.2 9.7 0.00 0.00 0.00 88 1005.1
20260506034008 23 142 3.2 8.0 0.00 0.00 0.00 87 1004.9
20260506033524 24 144 1.6 8.0 0.00 0.00 0.00 87 1004.9
20260506033030 24 134 1.6 6.4 0.00 0.00 0.00 87 1005.0
20260506032546 24 133 0.0 4.8 0.00 0.00 0.00 87 1005.0
20260506032058 24 132 1.6 6.4 0.00 0.00 0.00 87 1005.0
20260506031515 24 119 1.6 8.0 0.00 0.00 0.00 87 1004.8
20260506031028 24 117 1.6 9.7 0.00 0.00 0.00 86 1004.7
20260506030545 24 141 3.2 9.7 0.00 0.00 0.00 86 1004.6
20260506030037 24 106 1.6 6.4 0.00 0.00 0.00 85 1004.5
20260506025555 24 113 0.0 6.4 0.00 0.00 0.00 85 1004.4
20260506025010 25 123 0.0 1.6 0.00 0.00 0.00 84 1004.4
20260506024523 25 125 0.0 1.6 0.00 0.00 0.00 83 1004.3
20260506024033 25 125 0.0 1.6 0.00 0.00 0.00 83 1004.3
20260506023549 25 125 0.0 1.6 0.00 0.00 0.00 83 1004.3
20260506023007 25 125 0.0 1.6 0.00 0.00 0.00 83 1004.2
20260506022519 25 125 0.0 3.2 0.00 0.00 0.00 83 1004.2
20260506022033 25 125 0.0 4.8 0.00 0.00 0.00 83 1004.1
20260506021543 25 125 0.0 6.4 0.00 0.00 0.00 83 1004.0
20260506021057 25 125 0.0 6.4 0.00 0.00 0.00 82 1003.9
20260506020514 25 134 1.6 6.4 0.00 0.00 0.00 82 1003.6
20260506020007 25 120 3.2 8.0 0.00 0.00 0.00 82 1003.6
20260506015521 25 138 1.6 8.0 0.00 0.00 0.00 81 1003.5
20260506015037 25 142 3.2 8.0 0.00 0.00 0.00 81 1003.3
20260506014547 26 157 3.2 9.7 0.00 0.00 0.00 80 1003.2
20260506014005 26 154 1.6 9.7 0.00 0.00 0.00 79 1003.3
20260506013515 26 109 0.0 6.4 0.00 0.00 0.00 79 1003.1
20260506013041 26 113 1.6 6.4 0.00 0.00 0.00 78 1003.0
20260506012543 26 130 1.6 6.4 0.00 0.00 0.00 78 1003.0
20260506012055 26 136 1.6 8.0 0.00 0.00 0.00 77 1003.0
20260506011522 26 123 3.2 8.0 0.00 0.00 0.00 77 1003.0
20260506011027 27 121 1.6 4.8 0.00 0.00 0.00 76 1003.0
20260506010541 27 132 0.0 3.2 0.00 0.00 0.00 75 1003.2
20260506010037 27 133 0.0 3.2 0.00 0.00 0.00 75 1003.1
20260506005548 27 134 0.0 6.4 0.00 0.00 0.00 75 1003.2
20260506005058 27 138 0.0 6.4 0.00 0.00 0.00 74 1003.2
20260506005008 27 138 0.0 6.4 0.00 0.00 0.00 74 1003.2
20260506004521 27 130 0.0 4.8 0.00 0.00 0.00 74 1003.1
20260506004042 27 127 0.0 4.8 0.00 0.00 0.00 74 1003.1
20260506003553 27 143 0.0 3.2 0.00 0.00 0.00 74 1003.2
20260506003008 27 142 0.0 4.8 0.00 0.00 0.00 74 1003.2
20260506002522 27 143 0.0 11.3 0.00 0.00 0.00 74 1003.1
20260506002042 27 197 0.0 11.3 0.00 0.00 0.00 73 1003.1
20260506001558 27 175 4.8 12.9 0.00 0.00 0.00 73 1003.1
20260506001011 27 198 4.8 12.9 0.00 0.00 0.00 73 1003.1
20260506000527 28 178 4.8 9.7 0.00 0.00 0.00 73 1003.0
20260506000018 28 155 6.4 11.3 0.00 0.00 0.00 73 1003.0
20260505235532 28 179 4.8 11.3 0.00 0.00 0.00 72 1002.9
20260505235046 28 194 4.8 16.1 0.00 0.00 0.00 72 1003.0
20260505234557 28 196 4.8 11.3 0.00 0.00 0.00 72 1002.9
20260505234505 28 154 4.8 11.3 0.00 0.00 0.00 72 1002.9
20260505234019 28 173 4.8 14.5 0.00 0.00 0.00 72 1002.9
20260505233536 28 184 8.0 14.5 0.00 0.00 0.00 71 1002.9
20260505233040 28 165 6.4 12.9 0.00 0.00 0.00 72 1002.9
20260505232556 28 178 6.4 17.7 0.00 0.00 0.00 71 1002.9
20260505232010 28 109 6.4 16.1 0.00 0.00 0.00 71 1002.9
20260505231528 28 200 8.0 16.1 0.00 0.00 0.00 71 1002.9
20260505231036 28 188 8.0 17.7 0.00 0.00 0.00 70 1002.9
20260505230556 28 212 9.7 17.7 0.00 0.00 0.00 70 1002.9
20260505230112 28 211 8.0 19.3 0.00 0.00 0.00 71 1002.9
20260505225508 28 177 9.7 19.3 0.00 0.00 0.00 71 1002.9
20260505225032 28 216 9.7 17.7 0.00 0.00 0.00 71 1002.8
20260505224541 28 190 9.7 17.7 0.00 0.00 0.00 70 1002.8
20260505224054 28 200 9.7 17.7 0.00 0.00 0.00 71 1002.8
20260505223508 28 215 6.4 19.3 0.00 0.00 0.00 71 1002.8
20260505223038 28 206 6.4 19.3 0.00 0.00 0.00 72 1002.7
20260505222540 28 155 8.0 22.5 0.00 0.00 0.00 71 1002.8